User: anonymous   Login
Location: Unspecified
(0.0000°N, 0.0000°E)
Time: 15:23:07
(UTC+00:00)
Language:

Resurs 1-3 - Orbit

View from above orbital plane
View from above orbital plane
View from above satellite
View from above satellite

Ground track
Ground track

The orbit data is extracted from the following two-line orbital elements,

1 23342U 94074A   17228.82277969 -.00000003  00000-0  67785-5 0  9990
2 23342  98.0739 267.3319 0000802  91.8427 268.2876 14.79276918226748
Epoch (UTC): 16 August 2017 19:44:48
Eccentricity: 0.0000802
inclination: 98.0739°
perigee height: 631 km
apogee height: 632 km
right ascension of ascending node: 267.3319°
argument of perigee: 91.8427°
revolutions per day: 14.79276918
mean anomaly at epoch: 268.2876°
orbit number at epoch: 22674

The dashed part of the orbit path shows where the satellite is in the earth's shadow,  

DLR